Weather in Yaypan

Uzbekistan     40°22′37″N   70°48′49″E
temp.,
°C
wind,
m/s
gust,
m/s
humid.,
%
clouds,
%
prec.,
mm/h
press.,
hPa
HPBL,
m
22 april, thu
thu2223:00+14wsw1014520 0.0 1019722
02:00+12wsw69540 0.0 1021277
05:00+10sw35650 0.0 1024111
08:00+14wsw22490 0.0 1025426
11:00+18ne33350 0.0 10251689
14:00+21ene33240 0.0 10232051
17:00+22ene22210 0.0 10221992
20:00+19sse11260 0.0 102375
23 april, fri
fri2323:00+17ne11300 0.0 102316
02:00+15ene33370 0.0 102346
05:00+13ne34460 0.0 102361
08:00+17ne45340 0.0 1024489
11:00+22ene44220 0.0 10231344
14:00+24ne3215100 0.0 10202054
17:00+24ne221343 0.0 10191628
20:00+21ne231662 0.0 101930
24 april, sat
sat2423:00+19e23220 0.0 101930
02:00+17ene33280 0.0 101833
05:00+15ne33405 0.0 101939
08:00+18ene4630100 0.0 1020453
11:00+24ene441892 0.0 10191140
14:00+26ene111388 0.0 10171713
17:00+26w1313100 0.0 10171367
20:00+23ssw1118100 0.0 101811
25 april, sun
sun2523:00+20ese1119100 0.0 101911
02:00+18ene22225 0.0 101917
05:00+16ene2333100 0.0 101925
08:00+20ene3429100 0.0 1020333
11:00+25ene4418100 0.0 1019921
14:00+28e2213100 0.0 10171541
17:00+29ne1112100 0.0 10161376
20:00+24w111786 0.0 101711
26 april, mon
mon2623:00+22sw232146 0.0 101719
02:00+20sw2229100 0.0 101712
05:00+18ne2231100 0.0 101824
08:00+22ne332618 0.0 1019336
11:00+28ene44170 0.0 10171075
14:00+31ene44120 0.0 10142149
17:00+32ene45120 0.0 10132291
20:00+26ese22160 0.0 101315